sat.trackr.live / text

‹ back to catalog

STARLINK-32309

NORAD 61676 · 2024-193R

PAYLOAD ACTIVE UNKNOWN

§ Identity

Operator
Country
US
Launch date
2024-10-26
Launch site
AFETR
Launch vehicle
Mass (kg)
RCS (m²)

Purposes: comms

External: N2YO · Heavens-Above · Gunter

§ Orbital elements

Epoch: 2026-05-25T03:33:56.716704Z

Period
93.85 min
Inclination
53.1625°
Eccentricity
0.0001336
Mean motion
15.34393664 rev/d
Perigee alt
461.8 km
Apogee alt
463.6 km
Semi-major
6,840.9 km
B*
4.9753e-5
RAAN
95.0966°
Arg perigee
91.3387°
Mean anomaly
268.7768°
Rev number
8,824

§ Raw data

STARLINK-323091 61676U 24193R   26145.14857311  .00001305  00000+0  49753-4 0  99932 61676  53.1625  95.0966 0001336  91.3387 268.7768 15.34393664 88249

JSON: /api/v1/satellites/61676 · /tle

For live sub-satellite position, see the globe view (requires WebGL).

§ Visibility from observer

Set your observer location to see the next 7 days of passes ≥ 10°. The values pass through the URL so the page stays shareable.

No JS? Fill the form by hand. The geolocation button needs JavaScript.